Погода в Ольборге

Дания     57°02′58″N   9°54′58″E
темп.,
°C
ветер,
м/с
пор.,
м/с
влажн.,
%
обл.,
%
осадки,
мм/ч
давл.,
гПа
погр.,
м
24 мая, вт
вт2423:00+13юв81674100 0.0 1003595
02:00+12вюв101974100 0.0 1000652
05:00+12вюв102080100 0.0 997726
08:00+11юв91596100 4.2 996700
11:00+14зюз4785100 2.6 998748
14:00+16юз5773100 2.8 10001135
17:00+13зюз2586100 0.8 1001195
20:00+13ююз46856 2.6 1002432
25 мая, ср
ср2523:00+10ююз6129414 0.3 1004477
02:00+9юз5129785 0.3 1005454
05:00+10юз7119094 0.0 1006587
08:00+11юз698526 0.0 1007669
11:00+15зюз686245 0.5 10081587
14:00+14ююз6872100 2.1 10071163
17:00+14зюз6977100 2.1 10071161
20:00+11ююз61283100 2.7 1007734
26 мая, чт
чт2623:00+10ююз61289100 0.1 1006617
02:00+10юз6139550 0.9 1004544
05:00+9зюз714935 0.3 1004564
08:00+11з914843 0.4 10061206
11:00+13з1015605 0.1 10081612
14:00+13з1115555 0.1 10101698
17:00+13з1014595 0.0 10111690
20:00+11з812713 0.0 10101257
27 мая, пт
пт2723:00+8зюз613835 0.0 1009646
02:00+9юз6129529 2.1 1006782
05:00+7з8158556 0.1 1004868
08:00+10з915726 0.2 10041598
11:00+12з1116595 0.3 10031709
14:00+13з1217595 0.4 10021829
17:00+12з121667100 0.3 10021463
20:00+11зсз1117686 0.3 10011187
28 мая, сб
сб2823:00+10зсз10166486 0.0 1002837
02:00+9зсз81579100 0.0 1003565
05:00+7з498966 0.0 1003162
08:00+12зсз487498 0.0 1004344
11:00+15з666026 0.0 1004654
14:00+16зсз78535 0.0 10031170
17:00+15зсз1116580 0.0 1003881
20:00+11зсз1217670 0.0 1003997